Weather History for Caldwell, ID

Change the Weather History Date:

Monday, November 18, 2013

  Actual Average (KBOI) Record (KBOI)
Temperature  
Mean Temperature 38 °F 39 °F  
Max Temperature 44 °F 47 °F 64 °F (1908)
Min Temperature 32 °F 31 °F 7 °F (1985)
Degree Days  
Heating Degree Days 27 26  
Month to date heating degree days 403  
Since 1 July heating degree days 909  
Cooling Degree Days 0 0  
Month to date cooling degree days 0  
Year to date cooling degree days 942  
Moisture  
Dew Point 26 °F    
Average Humidity 61    
Maximum Humidity 70    
Minimum Humidity 53    
Precipitation  
Precipitation 0.00 in 0.05 in 0.63 in (1902)
Month to date precipitation 0.77  
Year to date precipitation 9.60  
Snow  
Snow 0.00 in 0.10 in 3.00 in (1955)
Month to date snowfall 1.0  
Since 1 July snowfall 1.1  
Snow Depth -    
Sea Level Pressure  
Sea Level Pressure 30.03 in    
Wind  
Wind Speed 7 mph (SE)    
Max Wind Speed 12 mph    
Max Gust Speed -    
Visibility 10 miles    
Events      
T = Trace of Precipitation, MM = Missing Value Source: NWS Daily Summary

Daily Weather History Graph

Daily Weather History Graph

Search for Another Location

Airport:

Trip Planner

Search our weather history database for the weather conditions in past years. The results will help you decide how hot, cold, wet, or windy it might be!

Date:

Astronomy

Nov. 18, 2013 Rise Set
Actual Time 7:44 AM MST 5:18 PM MST
Civil Twilight 7:13 AM MST 5:49 PM MST
Nautical Twilight 6:38 AM MST 6:24 PM MST
Astronomical Twilight 6:04 AM MST 6:58 PM MST
Moon 6:23 PM MST (11/18) 8:37 AM MST (11/18)
Length of Visible Light 10h 35m
Length of Day
9h 33m
Full, 99% of the Moon is Illuminated
Nov 18
Full
Nov 25
Last Quarter
Dec 2
New
Dec 9
First Quarter
Dec 17
Full

Hourly Weather History & Observations

Time (MST) Temp. Windchill Dew Point Humidity Pressure Visibility Wind Dir Wind Speed Gust Speed Precip Events Conditions
12:15 AM 35.6 °F 28.6 °F 23.0 °F 60% 30.10 in 10.0 mi SE 9.2 mph - N/A   Clear
12:35 AM 35.6 °F 28.0 °F 23.0 °F 60% 30.09 in 10.0 mi SE 10.4 mph - N/A   Clear
12:55 AM 35.6 °F 28.6 °F 23.0 °F 60% 30.10 in 10.0 mi SE 9.2 mph - N/A   Clear
1:15 AM 35.6 °F 28.6 °F 23.0 °F 60% 30.09 in 10.0 mi SE 9.2 mph - N/A   Clear
1:35 AM 35.6 °F 28.6 °F 23.0 °F 60% 30.09 in 10.0 mi SE 9.2 mph - N/A   Clear
1:55 AM 35.6 °F 28.6 °F 23.0 °F 60% 30.09 in 10.0 mi SE 9.2 mph - N/A   Clear
2:15 AM 35.6 °F 27.5 °F 21.2 °F 56% 30.08 in 10.0 mi SE 11.5 mph - N/A   Clear
2:35 AM 35.6 °F 28.6 °F 23.0 °F 60% 30.08 in 10.0 mi SE 9.2 mph - N/A   Clear
2:55 AM 35.6 °F 29.2 °F 21.2 °F 56% 30.09 in 10.0 mi SE 8.1 mph - N/A   Clear
3:15 AM 35.6 °F 29.2 °F 21.2 °F 56% 30.09 in 10.0 mi SE 8.1 mph - N/A   Clear
3:35 AM 35.6 °F 29.9 °F 21.2 °F 56% 30.09 in 10.0 mi SE 6.9 mph - N/A   Clear
3:55 AM 35.6 °F 29.9 °F 21.2 °F 56% 30.09 in 10.0 mi SSE 6.9 mph - N/A   Clear
4:15 AM 35.6 °F 29.2 °F 23.0 °F 60% 30.09 in 10.0 mi SE 8.1 mph - N/A   Clear
4:35 AM 35.6 °F 28.6 °F 23.0 °F 60% 30.08 in 10.0 mi SSE 9.2 mph - N/A   Clear
4:55 AM 35.6 °F 29.9 °F 23.0 °F 60% 30.08 in 10.0 mi SSE 6.9 mph - N/A   Clear
5:15 AM 35.6 °F 28.6 °F 23.0 °F 60% 30.08 in 10.0 mi SSE 9.2 mph - N/A   Clear
5:35 AM 35.6 °F 29.9 °F 23.0 °F 60% 30.08 in 10.0 mi South 6.9 mph - N/A   Clear
5:55 AM 35.6 °F 29.9 °F 23.0 °F 60% 30.09 in 10.0 mi SSW 6.9 mph - N/A   Clear
6:15 AM 35.6 °F 30.7 °F 23.0 °F 60% 30.09 in 10.0 mi SSW 5.8 mph - N/A   Clear
6:35 AM 35.6 °F 28.6 °F 21.2 °F 56% 30.08 in 10.0 mi South 9.2 mph - N/A   Clear
6:55 AM 35.6 °F 30.7 °F 21.2 °F 56% 30.09 in 10.0 mi SSE 5.8 mph - N/A   Clear
7:15 AM 35.6 °F 29.9 °F 21.2 °F 56% 30.09 in 10.0 mi South 6.9 mph - N/A   Clear
7:35 AM 33.8 °F 29.6 °F 21.2 °F 60% 30.09 in 10.0 mi South 4.6 mph - N/A   Clear
7:55 AM 32.0 °F - 21.2 °F 64% 30.09 in 10.0 mi Calm Calm - N/A   Clear
8:15 AM 32.0 °F 27.5 °F 21.2 °F 64% 30.10 in 10.0 mi SSE 4.6 mph - N/A   Clear
8:35 AM 33.8 °F - 23.0 °F 65% 30.10 in 10.0 mi Calm Calm - N/A   Clear
8:55 AM 33.8 °F 27.7 °F 21.2 °F 60% 30.09 in 10.0 mi ESE 6.9 mph - N/A   Clear
9:15 AM 35.6 °F 27.5 °F 23.0 °F 60% 30.10 in 10.0 mi SSE 11.5 mph - N/A   Clear
9:35 AM 37.4 °F 30.3 °F 23.0 °F 56% 30.10 in 10.0 mi SSE 10.4 mph - N/A   Clear
9:55 AM 37.4 °F 29.8 °F 24.8 °F 60% 30.08 in 10.0 mi SE 11.5 mph - N/A   Clear
10:15 AM 39.2 °F 33.6 °F 24.8 °F 56% 30.09 in 10.0 mi South 8.1 mph - N/A   Clear
10:35 AM 39.2 °F 32.5 °F 24.8 °F 56% 30.09 in 10.0 mi SSE 10.4 mph - N/A   Clear
10:55 AM 39.2 °F 34.2 °F 24.8 °F 56% 30.09 in 10.0 mi South 6.9 mph - N/A   Clear
11:15 AM 41.0 °F 36.4 °F 24.8 °F 53% 30.09 in 10.0 mi SSE 6.9 mph - N/A   Clear
11:35 AM 42.8 °F 41.1 °F 26.6 °F 53% 30.08 in 10.0 mi ESE 3.5 mph - N/A   Clear
11:55 AM 42.8 °F 38.6 °F 26.6 °F 53% 30.07 in 10.0 mi SE 6.9 mph - N/A   Clear
12:15 PM 42.8 °F 40.1 °F 26.6 °F 53% 30.07 in 10.0 mi East 4.6 mph - N/A   Clear
12:35 PM 42.8 °F 40.1 °F 28.4 °F 57% 30.05 in 10.0 mi East 4.6 mph - N/A   Clear
12:55 PM 42.8 °F 39.3 °F 28.4 °F 57% 30.05 in 10.0 mi ENE 5.8 mph - N/A   Clear
1:15 PM 42.8 °F 38.6 °F 28.4 °F 57% 30.03 in 10.0 mi ENE 6.9 mph - N/A   Clear
1:35 PM 42.8 °F 39.3 °F 28.4 °F 57% 30.02 in 10.0 mi NE 5.8 mph - N/A   Clear
1:55 PM 42.8 °F 40.1 °F 28.4 °F 57% 30.02 in 10.0 mi NE 4.6 mph - N/A   Clear
2:15 PM 42.8 °F 40.1 °F 28.4 °F 57% 30.02 in 10.0 mi North 4.6 mph - N/A   Clear
2:35 PM 42.8 °F 40.1 °F 28.4 °F 57% 30.01 in 10.0 mi NNE 4.6 mph - N/A   Clear
2:55 PM 42.8 °F 41.1 °F 28.4 °F 57% 30.00 in 10.0 mi NE 3.5 mph - N/A   Clear
3:15 PM 42.8 °F 41.1 °F 28.4 °F 57% 29.99 in 10.0 mi NNE 3.5 mph - N/A   Clear
3:35 PM 44.6 °F 43.1 °F 28.4 °F 53% 29.98 in 10.0 mi NE 3.5 mph - N/A   Clear
3:55 PM 44.6 °F 43.1 °F 28.4 °F 53% 29.98 in 10.0 mi North 3.5 mph - N/A   Clear
4:15 PM 42.8 °F - 28.4 °F 57% 29.98 in 10.0 mi Calm Calm - N/A   Clear
4:35 PM 42.8 °F - 28.4 °F 57% 29.97 in 10.0 mi Calm Calm - N/A   Clear
4:55 PM 42.8 °F - 28.4 °F 57% 29.97 in 10.0 mi Calm Calm - N/A   Clear
5:15 PM 42.8 °F 41.1 °F 28.4 °F 57% 29.97 in 10.0 mi WNW 3.5 mph - N/A   Clear
5:35 PM 41.0 °F 37.1 °F 28.4 °F 61% 29.97 in 10.0 mi WNW 5.8 mph - N/A   Clear
5:55 PM 39.2 °F 37.0 °F 28.4 °F 65% 29.95 in 10.0 mi NW 3.5 mph - N/A   Clear
6:15 PM 39.2 °F - 28.4 °F 65% 29.95 in 10.0 mi Calm Calm - N/A   Clear
6:35 PM 39.2 °F - 28.4 °F 65% 29.95 in 10.0 mi Calm Calm - N/A   Clear
6:55 PM 39.2 °F 37.0 °F 28.4 °F 65% 29.94 in 10.0 mi SW 3.5 mph - N/A   Clear
7:15 PM 39.2 °F - 28.4 °F 65% 29.94 in 10.0 mi Calm Calm - N/A   Clear
7:35 PM 39.2 °F 35.9 °F 28.4 °F 65% 29.94 in 10.0 mi SW 4.6 mph - N/A   Clear
7:55 PM 39.2 °F 35.0 °F 28.4 °F 65% 29.94 in 10.0 mi SW 5.8 mph - N/A   Partly Cloudy
8:15 PM 37.4 °F - 28.4 °F 70% 29.93 in 10.0 mi Calm Calm - N/A   Scattered Clouds
8:35 PM 37.4 °F - 28.4 °F 70% 29.94 in 10.0 mi Calm Calm - N/A   Scattered Clouds
8:55 PM 37.4 °F 34.9 °F 28.4 °F 70% 29.94 in 10.0 mi West 3.5 mph - N/A   Mostly Cloudy
9:15 PM 37.4 °F 33.8 °F 28.4 °F 70% 29.95 in 10.0 mi WNW 4.6 mph - N/A   Overcast
9:35 PM 37.4 °F 34.9 °F 28.4 °F 70% 29.94 in 10.0 mi North 3.5 mph - N/A   Overcast
9:55 PM 37.4 °F 33.8 °F 28.4 °F 70% 29.95 in 10.0 mi North 4.6 mph - N/A   Overcast
10:15 PM 37.4 °F 32.1 °F 28.4 °F 70% 29.92 in 10.0 mi East 6.9 mph - N/A   Overcast
10:35 PM 37.4 °F 32.8 °F 28.4 °F 70% 29.93 in 10.0 mi ESE 5.8 mph - N/A   Overcast
10:55 PM 37.4 °F - 28.4 °F 70% 29.94 in 10.0 mi Calm Calm - N/A   Overcast
11:15 PM 37.4 °F - 28.4 °F 70% 29.92 in 10.0 mi Calm Calm - N/A   Overcast
11:35 PM 37.4 °F 31.4 °F 28.4 °F 70% 29.94 in 10.0 mi West 8.1 mph - N/A   Overcast
11:55 PM 37.4 °F 34.9 °F 28.4 °F 70% 29.93 in 10.0 mi West 3.5 mph - N/A   Overcast